• In Deutschland
  • Länderverzeichnis
  • Für 7 Tage
  • Wassertemperatur
  • Satellitenkarten
  • Wetterkarte
  • Widgets
  • user-avatar
    Anmelden

    Stündliche Wetter Kitzingen

    Heute, 21 September, Freitag

    Zeit Temperatur Niederschläge Wind Luftdruck Luftfeuchtigkeit
    00:00 +20°C° 0 mm 2 m/S 741 mmHg 75%
    01:00 +19°C° 0 mm 2 m/S 741 mmHg 77%
    02:00 +19°C° 0 mm 2 m/S 741 mmHg 78%
    03:00 +19°C° 0 mm 2 m/S 740 mmHg 79%
    04:00 +18°C° 0 mm 2 m/S 740 mmHg 80%
    05:00 +18°C° 0 mm 3 m/S 740 mmHg 79%
    06:00 +18°C° 0 mm 3 m/S 740 mmHg 78%
    07:00 +18°C° 0 mm 3 m/S 739 mmHg 77%
    08:00 +21°C° 0 mm 4 m/S 739 mmHg 68%
    09:00 +23°C° 0 mm 5 m/S 739 mmHg 60%
    10:00 +27°C° 0 mm 6 m/S 739 mmHg 51%
    11:00 +27°C° 0 mm 6 m/S 738 mmHg 50%
    12:00 +27°C° 0 mm 7 m/S 738 mmHg 49%
    13:00 +28°C° 0 mm 7 m/S 738 mmHg 47%
    14:00 +26°C° 0.3 mm 7 m/S 738 mmHg 55%
    15:00 +23°C° 0.3 mm 7 m/S 739 mmHg 62%
    16:00 +21°C° 0.3 mm 6 m/S 739 mmHg 70%
    17:00 +19°C° 0.8 mm 6 m/S 739 mmHg 74%
    18:00 +17°C° 0.8 mm 5 m/S 740 mmHg 78%
    19:00 +15°C° 0.8 mm 4 m/S 741 mmHg 82%
    20:00 +14°C° 0 mm 4 m/S 742 mmHg 79%
    21:00 +13°C° 0 mm 4 m/S 743 mmHg 76%
    22:00 +13°C° 0 mm 4 m/S 744 mmHg 73%
    23:00 +12°C° 0 mm 3 m/S 744 mmHg 72%

    Morgen, 22 September, Samstag

    Zeit Temperatur Niederschläge Wind Luftdruck Luftfeuchtigkeit
    00:00 +11°C° 0 mm 3 m/S 745 mmHg 71%
    01:00 +11°C° 0 mm 3 m/S 745 mmHg 70%
    02:00 +10°C° 0 mm 3 m/S 746 mmHg 71%
    03:00 +10°C° 0 mm 3 m/S 746 mmHg 71%
    04:00 +9°C° 0 mm 3 m/S 746 mmHg 72%
    05:00 +9°C° 0 mm 3 m/S 747 mmHg 72%
    06:00 +9°C° 0 mm 3 m/S 747 mmHg 72%
    07:00 +10°C° 0 mm 3 m/S 747 mmHg 72%
    08:00 +11°C° 0 mm 4 m/S 747 mmHg 68%
    09:00 +12°C° 0 mm 4 m/S 747 mmHg 64%
    10:00 +14°C° 0 mm 4 m/S 747 mmHg 60%
    11:00 +15°C° 0 mm 5 m/S 747 mmHg 55%
    12:00 +16°C° 0 mm 5 m/S 747 mmHg 51%
    13:00 +17°C° 0 mm 5 m/S 747 mmHg 46%
    14:00 +17°C° 0 mm 5 m/S 746 mmHg 45%
    15:00 +17°C° 0 mm 5 m/S 746 mmHg 45%
    16:00 +17°C° 0 mm 5 m/S 746 mmHg 44%
    17:00 +17°C° 0 mm 4 m/S 746 mmHg 47%
    18:00 +16°C° 0 mm 3 m/S 746 mmHg 50%
    19:00 +14°C° 0 mm 3 m/S 746 mmHg 53%
    20:00 +14°C° 0 mm 2 m/S 746 mmHg 56%
    21:00 +13°C° 0 mm 2 m/S 747 mmHg 59%
    22:00 +13°C° 0 mm 2 m/S 747 mmHg 62%
    23:00 +12°C° 0 mm 2 m/S 747 mmHg 63%

    übermorgen, 23 September, Sonntag

    Zeit Temperatur Niederschläge Wind Luftdruck Luftfeuchtigkeit
    00:00 +12°C° 0 mm 2 m/S 747 mmHg 65%
    01:00 +12°C° 0 mm 1 m/S 746 mmHg 66%
    02:00 +12°C° 0.6 mm 1 m/S 746 mmHg 73%
    03:00 +12°C° 0.6 mm 1 m/S 746 mmHg 79%
    04:00 +11°C° 0.6 mm 1 m/S 746 mmHg 86%
    05:00 +11°C° 0.6 mm 1 m/S 745 mmHg 88%
    06:00 +10°C° 0.6 mm 2 m/S 745 mmHg 89%
    07:00 +10°C° 0.6 mm 2 m/S 745 mmHg 91%
    08:00 +12°C° 0.3 mm 2 m/S 744 mmHg 90%
    09:00 +12°C° 0.3 mm 3 m/S 744 mmHg 89%
    10:00 +12°C° 0.3 mm 3 m/S 744 mmHg 88%
    11:00 +13°C° 0.6 mm 3 m/S 743 mmHg 89%
    12:00 +14°C° 0.6 mm 3 m/S 742 mmHg 90%
    13:00 +16°C° 0.6 mm 3 m/S 742 mmHg 91%
    14:00 +17°C° 0.4 mm 4 m/S 741 mmHg 89%
    15:00 +19°C° 0.4 mm 5 m/S 740 mmHg 87%
    16:00 +20°C° 0.4 mm 6 m/S 739 mmHg 85%
    17:00 +20°C° 0.5 mm 6 m/S 738 mmHg 85%
    18:00 +20°C° 0.5 mm 6 m/S 737 mmHg 86%
    19:00 +20°C° 0.5 mm 7 m/S 736 mmHg 87%
    20:00 +20°C° 3.1 mm 8 m/S 735 mmHg 87%
    21:00 +19°C° 3.1 mm 9 m/S 735 mmHg 88%
    22:00 +19°C° 3.1 mm 11 m/S 735 mmHg 88%
    23:00 +16°C° 2 mm 10 m/S 736 mmHg 87%

    24 September, Montag

    Zeit Temperatur Niederschläge Wind Luftdruck Luftfeuchtigkeit
    00:00 +13°C° 2 mm 9 m/S 738 mmHg 86%
    01:00 +11°C° 2 mm 8 m/S 740 mmHg 85%
    02:00 +9°C° 0 mm 7 m/S 742 mmHg 84%
    03:00 +8°C° 0 mm 6 m/S 744 mmHg 84%
    04:00 +7°C° 0 mm 5 m/S 747 mmHg 84%
    05:00 +7°C° 0 mm 4 m/S 748 mmHg 86%
    06:00 +7°C° 0 mm 3 m/S 749 mmHg 87%
    07:00 +7°C° 0 mm 3 m/S 751 mmHg 89%
    08:00 +9°C° 0 mm 3 m/S 751 mmHg 81%
    09:00 +10°C° 0 mm 3 m/S 752 mmHg 73%
    10:00 +12°C° 0 mm 4 m/S 752 mmHg 65%
    11:00 +13°C° 0 mm 4 m/S 753 mmHg 60%
    12:00 +13°C° 0 mm 4 m/S 753 mmHg 54%
    13:00 +14°C° 0 mm 5 m/S 753 mmHg 49%
    14:00 +14°C° 0.1 mm 5 m/S 753 mmHg 50%
    15:00 +14°C° 0.1 mm 4 m/S 753 mmHg 51%
    16:00 +14°C° 0.1 mm 4 m/S 753 mmHg 52%
    17:00 +12°C° 0 mm 4 m/S 754 mmHg 58%
    18:00 +11°C° 0 mm 3 m/S 754 mmHg 64%
    19:00 +9°C° 0 mm 2 m/S 755 mmHg 70%
    20:00 +8°C° 0 mm 2 m/S 755 mmHg 72%
    21:00 +8°C° 0 mm 2 m/S 756 mmHg 74%
    22:00 +7°C° 0 mm 2 m/S 757 mmHg 76%
    23:00 +6°C° 0 mm 2 m/S 757 mmHg 78%

    25 September, Dienstag

    Zeit Temperatur Niederschläge Wind Luftdruck Luftfeuchtigkeit
    00:00 +7°C° 0 mm 1 m/S 757 mmHg 80%
    01:00 +6°C° 0 mm 1 m/S 757 mmHg 82%
    02:00 +6°C° 0 mm 1 m/S 758 mmHg 84%
    03:00 +6°C° 0 mm 1 m/S 758 mmHg 85%
    04:00 +5°C° 0 mm 1 m/S 758 mmHg 87%
    05:00 +5°C° 0 mm 1 m/S 758 mmHg 87%
    06:00 +5°C° 0 mm 1 m/S 759 mmHg 86%
    07:00 +6°C° 0 mm 1 m/S 759 mmHg 86%
    08:00 +7°C° 0 mm 2 m/S 759 mmHg 75%
    09:00 +9°C° 0 mm 2 m/S 759 mmHg 64%
    10:00 +11°C° 0 mm 3 m/S 759 mmHg 54%
    11:00 +12°C° 0 mm 3 m/S 759 mmHg 48%
    12:00 +13°C° 0 mm 3 m/S 759 mmHg 43%
    13:00 +14°C° 0 mm 3 m/S 758 mmHg 38%
    14:00 +14°C° 0 mm 3 m/S 758 mmHg 38%
    15:00 +15°C° 0 mm 2 m/S 758 mmHg 38%
    16:00 +15°C° 0 mm 2 m/S 757 mmHg 38%
    17:00 +13°C° 0 mm 2 m/S 757 mmHg 44%
    18:00 +10°C° 0 mm 2 m/S 757 mmHg 49%
    19:00 +9°C° 0 mm 2 m/S 757 mmHg 55%
    20:00 +8°C° 0 mm 2 m/S 757 mmHg 57%
    21:00 +7°C° 0 mm 2 m/S 757 mmHg 59%
    22:00 +7°C° 0 mm 2 m/S 756 mmHg 61%
    23:00 +6°C° 0 mm 2 m/S 756 mmHg 62%

    26 September, Mittwoch

    Zeit Temperatur Niederschläge Wind Luftdruck Luftfeuchtigkeit
    00:00 +6°C° 0 mm 2 m/S 756 mmHg 64%
    01:00 +5°C° 0 mm 2 m/S 756 mmHg 66%
    02:00 +5°C° 0 mm 2 m/S 755 mmHg 67%
    03:00 +5°C° 0 mm 2 m/S 755 mmHg 68%
    04:00 +4°C° 0 mm 2 m/S 755 mmHg 69%
    05:00 +5°C° 0 mm 1 m/S 755 mmHg 70%
    06:00 +5°C° 0 mm 1 m/S 755 mmHg 70%
    07:00 +5°C° 0 mm 1 m/S 755 mmHg 71%
    08:00 +7°C° 0 mm 2 m/S 754 mmHg 63%
    09:00 +9°C° 0 mm 2 m/S 754 mmHg 55%
    10:00 +13°C° 0 mm 2 m/S 754 mmHg 48%
    11:00 +14°C° 0 mm 2 m/S 754 mmHg 44%
    12:00 +16°C° 0 mm 1 m/S 754 mmHg 40%
    13:00 +19°C° 0 mm 1 m/S 753 mmHg 36%
    14:00 +19°C° 0 mm 1 m/S 753 mmHg 37%
    15:00 +20°C° 0 mm 1 m/S 752 mmHg 38%
    16:00 +20°C° 0 mm 1 m/S 752 mmHg 39%
    17:00 +18°C° 0 mm 1 m/S 752 mmHg 45%
    18:00 +14°C° 0 mm 1 m/S 752 mmHg 51%
    19:00 +12°C° 0 mm 1 m/S 752 mmHg 57%
    20:00 +12°C° 0 mm 1 m/S 752 mmHg 58%
    21:00 +11°C° 0 mm 1 m/S 752 mmHg 60%
    22:00 +11°C° 0 mm 1 m/S 752 mmHg 61%
    23:00 +11°C° 0 mm 1 m/S 751 mmHg 63%
    Mehr zeigen